AirNav   Air Wisconsin pilot careers
 
 1570 users online  

8U8 Townsend Airport
Townsend, Montana, USA

GOING TO TOWNSEND?


FAA INFORMATION EFFECTIVE 16 AUGUST 2018

Location

FAA Identifier: 8U8
Lat/Long: 46-19-52.4350N / 111-28-57.3100W
46-19.873917N / 111-28.955167W
46.3312319 / -111.4825861
(estimated)
Elevation: 3893 ft. / 1186.6 m (surveyed)
Variation: 16E (1985)
From city: 2 miles E of TOWNSEND, MT
Time zone: UTC -6 (UTC -7 during Standard Time)
Zip code: 59644

Airport Operations

Airport use: Open to the public
Activation date: 05/1941
Control tower: no
ARTCC: SALT LAKE CITY CENTER
FSS: GREAT FALLS FLIGHT SERVICE STATION
NOTAMs facility: GTF (NOTAM-D service available)
Attendance: UNATNDD
Wind indicator: lighted
Segmented circle: no
Lights: ACTVT MIRL RY 17/35 AND PAPI RYS 17 & 35 - CTAF.
Beacon: white-green (lighted land airport)
Operates sunset to sunrise.

Airport Communications

CTAF/UNICOM: 122.8

Nearby radio navigation aids

VOR radial/distance  VOR name  Freq  Var
HLNr114/25.5HELENA VORTAC117.7016E
BZNr319/35.6BOZEMAN VOR/DME112.4018E

 
NDB name  Hdg/Dist  Freq  Var  ID
HAUSER125/18.238616EHAU .... .- ..-

Airport Services

Fuel available: 100LL
Parking: tiedowns
Airframe service: NONE
Powerplant service: NONE
Bottled oxygen: NONE
Bulk oxygen: NONE

Runway Information

Runway 17/35

Dimensions: 4000 x 60 ft. / 1219 x 18 m
Surface: asphalt
Weight bearing capacity: 
Single wheel: 5.0
Runway edge lights: medium intensity
RUNWAY 17  RUNWAY 35
Traffic pattern: leftleft
Markings: basic, in good conditionbasic, in good condition
Visual slope indicator: 2-light PAPI on left (3.00 degrees glide path)2-light PAPI on left (4.00 degrees glide path)

Airport Ownership and Management from official FAA records

Ownership: Publicly-owned
Owner: TOWNSEND CITY CO AIRPORT
515 BROADWAY
TOWNSEND, MT 59644
Phone 406-266-9203
Manager: MIKE FERGUSON
47 AIRPORT ROAD
TOWNSEND, MT 59644
Phone (406) 459-4825

Airport Operational Statistics

Aircraft based on the field: 5
Single engine airplanes: 5
    
Aircraft operations: avg 86/week *
67% transient general aviation
33% local general aviation
<1% military
* for 12-month period ending 25 September 2017

Additional Remarks

TWY MKD WITH REFLECTORS.
INTMT SNOW REMOVAL ON RY 17/35.

Instrument Procedures

There are no published instrument procedures at 8U8.

Some nearby airports with instrument procedures:

KHLN - Helena Regional Airport (26 nm NW)
KBZN - Bozeman Yellowstone International Airport (36 nm SE)
KBTM - Bert Mooney Airport (48 nm SW)
38S - Deer Lodge-City-County Airport (53 nm W)
KLVM - Mission Field Airport (57 nm SE)
 
Loc | Ops | Rwys | IFR | FBO | Links
Com | Nav | Svcs | Stats | Notes


 
Area around 8U8 (Townsend Airport)
 
Road maps at: MapQuest Bing Google
 
Aerial photo
WARNING: Photo may not be current or correct
Aerial photo of 8U8 (Townsend Airport)
Do you have a better or more recent aerial photo of Townsend Airport that you would like to share? If so, please send us your photo.

 
Sectional chart

 
Airport distance calculator
Flying to Townsend Airport? Find the distance to fly.

From to 8U8

Sunrise and sunset
Times for 16-Aug-2018
 Local
(UTC-6)
 Zulu
(UTC)
Morning civil twilight05:5411:54
Sunrise06:2712:27
Sunset20:3302:33
Evening civil twilight21:0603:06

Current date and time
Zulu (UTC)  16-Aug-2018 16:20:42
Local (UTC-6)  16-Aug-2018 10:20:42
 
METAR
KHLN 
26nm NW 
161553Z 00000KT 9SM CLR 19/03 A3018 RMK AO2 SLP203 T01890028
9S5 
27nm S 
SuperAWOS
161555Z AUTO 00000KT 10SM 17/04 A3016
KBZN 
35nm S 
161456Z 07003KT 10SM CLR 16/03 A3020 RMK AO2 SLP199 T01560028 51012 $
KBTM 
48nm SW 
161553Z AUTO 00000KT 8SM CLR 18/M01 A3026 RMK AO2 SLP198 T01781006
TAF
KHLN 
26nm NW 
161144Z 1612/1712 VRB03KT P6SM SKC FM161900 VRB04KT P6SM SCT120 BKN150 PROB30 1700/1702 VRB15G20KT TS BKN100CB
NOTAMs
Click for the latest NOTAMs
NOTAMs are issued by the DoD/FAA and will open in a separate window not controlled by AirNav.

 

 
 

FBO, Fuel Providers, and Aircraft Ground Support

  
 Business Name 
 
 Contact 
 
 Services / Description 
 
Fuel Prices
 
Comments
  
Townsend City/County 406-459-4825
no information available

If you are affiliated with Townsend City/County and would like to show here your services, contact info, web link, logo, and more, click here
100LL
SS $4.64 
 Updated 14-Aug-2018
 
   2 read write
SS=Self service
Update Fuel Prices
 

Would you like to see your business listed on this page?

 If your business provides an interesting product or service to pilots, flight crews, aircraft, or users of the Townsend Airport, you should consider listing it here.  To start the listing process, click on the button below
 
Add a business
 

Other Pages about Townsend Airport

Update a link
 
Copyright © AirNav, LLC. All rights reserved. Privacy Policy  Contact